Location: Im Fang
(46.6019°N, 7.2397°E)
Time: 13:04:29
(UTC+00:00)

Cosmos 1655 Rocket - Pass Details

Date: 08 December 2019
Orbit: 970 x 1006 km, 83.0° (Epoch: 24 January)

Event Time Altitude Azimuth Distance (km) Brightness Sun altitude
Rises 05:38:47 0° 351° (N) 3,683 6.8 -13.6°
Reaches altitude 10° 05:41:19 10° 353° (N) 2,729 6.1 -13.2°
Maximum altitude 05:47:35 83° 82° (E) 984 4.1 -12.2°
Drops below altitude 10° 05:53:47 10° 170° (S) 2,707 6.8 -11.2°
Sets 05:56:17 0° 171° (S) 3,652 7.4 -10.8°
